Current weather by "City, St" or "zip code"  
 

Current Conditions: Corpus Christi, Corpus Christi Naval Air Station/Truax Field, TX

Fair


76.0 F

Last Updated on Oct 31 2020, 1:56 pm CDT
Humidity: 54%
Wind Speed: NE 10.4 mph
Barometer 30.15 in
Dewpoint: 57.9 F
Visibility: 10.00 mi
Precip: --
Heat Index: NA
Wind Chill: NA
Current conditions at:

Corpus Christi, Corpus Christi Naval Air Station/Truax Field, TX (KNGP)

Lat: 27.6925 Lon: 97.29111

Local Radar Image active severe weather and emergency alerts image image weather storm and storm spotter reports image weather observation monitoring service image
Local
Radar
Active
Alerts
Storm Reports Obs
Monitoring

Sign-up For Email & Text Message Weather Alert Notification Services



Advertise Here

Observation History for Corpus Christi, Corpus Christi Naval Air Station/Truax Field, TX


Time Wind
(mph)
Vis
(mi)
Weather Precip (in) Temperature (F) Relative
Humidity
Wind
Chill
(F)
Heat
Index
(F)
Pressure
Air Dwpt altimeter
(in)
sea level
(mb)
Rmks
1:56 pm CDT NE 10.4 10.00 Fair -- 76.0 57.9 54% NA NA 30.15 1020.9
12:56 pm CDT NE 11.5 10.00 Fair -- 75.0 57.9 55% NA NA 30.18 1022.0
11:56 am CDT NE 10.4 10.00 Fair -- 73.0 57.0 57% NA NA 30.21 1022.8
10:56 am CDT N 9.2 10.00 Fair -- 69.0 55.9 63% NA NA 30.22 1023.3
9:56 am CDT N 6.9 10.00 A Few Clouds -- 66.0 57.0 73% NA NA 30.22 1023.1
7:56 am CDT N 9.2 10.00 Fair -- 59.0 55.9 90% 57 NA 30.19 1022.3
6:56 am CDT N 6.9 10.00 A Few Clouds -- 58.0 55.0 90% 57 NA 30.19 1022.2
5:56 am CDT N 9.2 10.00 A Few Clouds -- 60.0 57.0 90% 59 NA 30.18 1021.9
4:56 am CDT N 0.0 10.00 Fair -- 59.0 57.0 93% NA NA 30.17 1021.7
3:56 am CDT N 3.5 10.00 Fair -- 57.0 52.0 83% NA NA 30.19 1022.1
2:56 am CDT E 4.6 10.00 Fair -- 57.0 51.1 81% 57 NA 30.19 1022.3
1:56 am CDT NE 3.5 10.00 Fair -- 58.0 51.1 78% NA NA 30.21 1022.8
12:56 am CDT NE 4.6 10.00 Fair -- 59.0 51.1 75% 59 NA 30.21 1022.9
11:56 pm CDT NE 3.5 10.00 Fair -- 57.0 53.1 87% NA NA 30.21 1023.0
10:56 pm CDT N 0.0 10.00 Fair -- 59.0 54.0 83% NA NA 30.22 1023.2
9:56 pm CDT N 0.0 10.00 Fair -- 60.0 53.1 78% NA NA 30.21 1022.9
8:56 pm CDT N 0.0 10.00 Fair -- 58.0 51.1 78% NA NA 30.21 1022.8
7:56 pm CDT E 6.9 10.00 Fair -- 58.0 50.0 75% 57 NA 30.19 1022.3
6:56 pm CDT E 8.1 10.00 Fair -- 64.0 50.0 60% NA NA 30.19 1022.1
5:56 pm CDT E 10.4 10.00 Fair -- 68.0 48.0 49% NA NA 30.18 1021.9
4:56 pm CDT E 11.5 10.00 A Few Clouds -- 70.0 45.0 41% NA NA 30.19 1022.2
3:56 pm CDT NE 11.5 10.00 A Few Clouds -- 70.0 45.0 41% NA NA 30.20 1022.7
2:56 pm CDT NE 10.4 10.00 A Few Clouds -- 70.0 46.9 44% NA NA 30.22 1023.2

Regional Weather Observation


Corpus Christi, Corpus Christi International Airport, TX (KCRP)

Partly Cloudy
78.0 F

Robstown, Nueces County Airport, TX (KRBO)

Fair
77.0 F

Port Aransas, Mustang Beach Airport, TX (KRAS)

Fair
73.0 F

Corpus Christi, Corpus Christi Naval Air Station/Truax Field, TX (KNGP)

Fair
76.0 F

Rockport Aransas County Airport, TX (KRKP)

Fair
75.0 F

Kingsville, Naval Air Station, TX (KNQI)

Fair
77.0 F